Scottsbluff, NE

3:39 PM MST on November 15, 2019 (GMT -0700)
Heilig

Weather History for KBFF - September, 2019

Change the Weather History Date:

Monday, September 23, 2019

  Actual Average Record
Temperature  
Mean Temperature 64 °F -  
Max Temperature 88 °F 74 °F 93 °F (1905)
Min Temperature 39 °F 41 °F 27 °F (1916)
Degree Days  
Heating Degree Days 2    
Growing Degree Days 14 (Base 50)    
Moisture  
Dew Point 40 °F    
Average Humidity 52    
Maximum Humidity 93    
Minimum Humidity 16    
Precipitation  
Precipitation 0.00 in - - ()
Sea Level Pressure  
Sea Level Pressure 29.95 in    
Wind  
Wind Speed 5 mph (ENE)    
Max Wind Speed 8 mph    
Max Gust Speed -    
Visibility 10 miles    
Events      
Averages and records for this station are not official NWS values.
T = Trace of Precipitation, MM = Missing Value Source: NWS Daily Summary

Daily Weather History Graph

Daily Weather History Graph

Search for Another Location

Airport or City:

Astronomy

Sep. 23, 2019 Rise Set
Actual Time 6:42 AM MDT 6:50 PM MDT
Civil Twilight 6:14 AM MDT 7:17 PM MDT
Nautical Twilight 5:42 AM MDT 7:50 PM MDT
Astronomical Twilight 5:09 AM MDT 8:23 PM MDT
Moon 12:22 AM MDT (9/23) 3:51 PM MDT (9/23)
Length of Visible Light 13h 03m
Length of Day
12h 07m
Waning Crescent, 32% of the Moon is Illuminated
Sep 23
Waning Crescent
Sep 28
New
Oct 5
First Quarter
Oct 13
Full
Oct 21
Last Quarter

Hourly Weather History & Observations

Time (MDT) Temp. Windchill Dew Point Humidity Pressure Visibility Wind Dir Wind Speed Gust Speed Precip Events Conditions
12:53 AM 48.0 °F - 39.9 °F 74% 29.99 in 10.0 mi East 8.1 mph - N/A   Clear
1:53 AM 46.9 °F - 39.9 °F 77% 29.98 in 10.0 mi East 6.9 mph - N/A   Clear
2:53 AM 46.0 °F 43.9 °F 39.0 °F 76% 29.97 in 10.0 mi ENE 4.6 mph - N/A   Clear
3:53 AM 45.0 °F 42.6 °F 37.9 °F 76% 29.97 in 10.0 mi NE 4.6 mph - N/A   Clear
4:53 AM 43.0 °F - 37.9 °F 82% 29.97 in 10.0 mi Calm Calm - N/A   Clear
5:53 AM 41.0 °F - 37.9 °F 89% 29.99 in 10.0 mi North - - N/A   Clear
6:53 AM 39.0 °F - 37.0 °F 93% 30.02 in 10.0 mi Calm Calm - N/A   Clear
7:53 AM 44.1 °F 40.8 °F 39.9 °F 85% 30.04 in 10.0 mi North 5.8 mph - N/A   Clear
8:53 AM 55.9 °F - 43.0 °F 62% 30.04 in 10.0 mi NW 4.6 mph - N/A   Clear
9:53 AM 64.9 °F - 42.1 °F 43% 30.02 in 10.0 mi NW 5.8 mph - N/A   Clear
10:53 AM 71.1 °F - 42.1 °F 35% 30.00 in 10.0 mi Calm Calm - N/A   Clear
11:53 AM 73.9 °F - 43.0 °F 33% 29.99 in 10.0 mi Calm Calm - N/A   Clear
12:53 PM 80.1 °F - 39.0 °F 23% 29.95 in 10.0 mi NW 5.8 mph - N/A   Clear
1:53 PM 84.0 °F - 33.1 °F 16% 29.91 in 10.0 mi WNW 8.1 mph - N/A   Clear
2:53 PM 86.0 °F - 34.0 °F 16% 29.88 in 10.0 mi WSW 6.9 mph - N/A   Clear
3:53 PM 87.1 °F - 35.1 °F 16% 29.88 in 10.0 mi East 6.9 mph - N/A   Clear
4:53 PM 82.9 °F - 35.1 °F 18% 29.88 in 10.0 mi SE 8.1 mph - N/A   Clear
5:53 PM 79.0 °F - 41.0 °F 26% 29.89 in 10.0 mi SE 6.9 mph - N/A   Clear
6:53 PM 70.0 °F - 45.0 °F 41% 29.93 in 10.0 mi ESE 4.6 mph - N/A   Clear
7:53 PM 64.0 °F - 45.0 °F 50% 29.94 in 10.0 mi SE 4.6 mph - N/A   Clear
8:53 PM 61.0 °F - 46.0 °F 58% 29.91 in 10.0 mi ESE 5.8 mph - N/A   Clear
9:53 PM 61.0 °F - 44.1 °F 54% 29.91 in 10.0 mi East 5.8 mph - N/A   Clear
10:53 PM 59.0 °F - 44.1 °F 58% 29.89 in 10.0 mi East 6.9 mph - N/A   Clear
11:53 PM 55.9 °F - 44.1 °F 64% 29.89 in 10.0 mi ENE 5.8 mph - N/A   Clear